Location: Katowice
(50.2611°N, 19.0242°E)
Time: 11:12:27
(UTC+02:00)

A-11 Canister half - Pass Details

Date: 24 July 2019
Orbit: 1526 x 1682 km, 47.3° (Epoch: 25 August)

Event Time Altitude Azimuth Distance (km) Brightness Sun altitude
Rises 19:00:05 0° 197° (SSW) 4,921 11.7 13.6°
Reaches altitude 10° 19:03:54 10° 186° (S) 3,929 11.1 13.0°
Maximum altitude 19:11:45 27° 134° (SE) 2,805 10.0 11.8°
Drops below altitude 10° 19:19:28 10° 82° (E) 3,874 10.6 10.6°
Sets 19:23:10 0° 71° (ENE) 4,839 11.1 10.1°
